Helicity
58 63 63 58 52 45 40 41 41 38 37 38 41 45 46 43 42 44 42 40 30 32 39 48 45 42 39 41 40 45 49 59 61 64 71 73 75 77 81 82 80 82 80
67 64 64 59 52 50 48 43 41 40 36 32 37 46 46 47 42 40 42 42 40 41 40 41 39 41 40 38 43 47 49 60 69 75 81 89 89 93 99 102 101 99 100
69 66 55 45 43 49 45 45 46 42 40 32 36 43 48 51 54 49 52 51 54 50 47 39 40 42 42 37 35 47 51 52 71 85 97 107 107 99 102 109 114 115 110
50 56 44 33 41 49 51 51 54 49 44 45 52 57 55 53 56 57 56 57 61 64 66 55 46 41 46 43 32 34 61 73 64 80 94 108 122 127 112 108 113 119 121
45 46 43 44 53 57 59 64 56 63 71 72 69 58 61 57 64 70 60 64 65 76 81 74 62 58 57 61 48 40 72 78 79 76 71 97 106 106 116 129 114 120 122
46 53 47 46 62 63 64 74 73 91 86 90 95 83 75 72 87 81 70 77 83 83 84 84 80 81 74 66 59 57 59 109 129 117 121 112 122 181 121 88 99 132 145
51 62 64 58 75 80 77 87 103 100 107 125 126 110 113 104 103 76 84 84 101 99 92 80 89 94 92 82 71 54 57 70 132 204 151 214 190 88 123 152 141 158 182
59 60 57 67 77 96 94 102 127 146 144 152 158 163 131 112 112 105 72 78 53 69 73 75 67 56 58 94 110 82 66 72 139 181 334 255 189 148 149 232 102 82 136
94 98 97 104 106 112 110 115 145 142 142 159 152 204 207 180 179 149 137 117 89 65 72 82 80 86 86 86 120 113 113 153 168 195 223 264 228 195 168 106 107 106 97
108 113 123 125 118 129 123 125 136 147 173 173 204 181 211 245 206 170 141 132 123 109 112 114 126 115 118 120 133 121 114 162 178 145 106 193 184 168 98 37 2 51 46
83 93 105 113 113 143 126 128 156 162 184 202 215 241 201 194 185 189 180 137 117 122 144 134 136 126 99 121 140 136 114 113 95 76 128 181 191 147 113 59 57 21 38
113 104 102 104 114 128 128 139 155 161 164 173 180 191 175 169 166 177 158 139 139 153 165 153 133 133 111 124 119 124 117 92 86 87 58 54 180 178 47 52 14 53 56
145 162 159 137 138 140 153 173 184 179 179 180 177 164 131 124 168 166 162 146 146 151 155 157 142 140 130 112 113 122 109 76 76 92 95 125 128 228 296 227 149 88 159
190 189 181 173 154 150 164 188 215 215 205 223 237 216 188 184 179 179 171 177 150 151 165 163 143 113 118 140 115 126 113 97 90 110 193 206 179 192 175 121 155 98 47
185 188 187 186 198 209 197 222 254 301 302 261 229 200 175 176 188 187 189 173 182 155 143 170 136 133 134 137 138 128 137 167 196 212 210 147 122 117 111 106 111 97 72
171 162 164 179 191 209 218 251 289 271 261 229 193 171 171 188 192 194 181 180 187 183 196 196 152 136 129 118 127 123 126 130 157 174 165 132 90 135 106 97 99 60 76
167 172 180 181 192 201 212 232 239 237 228 233 199 192 200 194 184 168 160 180 192 172 160 158 141 116 105 98 103 107 98 98 100 128 117 123 98 85 95 79 78 86 86
165 170 186 200 211 221 227 225 241 243 242 243 244 220 191 160 161 152 163 163 158 139 132 128 97 86 89 95 97 96 100 84 85 98 113 109 99 115 131 118 101 90 75
162 175 185 203 212 219 238 250 252 259 253 239 210 177 160 143 149 151 149 122 101 91 85 86 95 89 100 98 103 108 103 98 88 92 106 99 82 76 82 98 101 98 96
158 172 177 186 203 211 221 222 226 229 227 214 197 182 159 147 131 123 89 72 77 89 96 104 103 104 108 108 113 111 117 125 116 113 104 93 92 111 117 117 108 96 56
160 169 170 176 176 178 177 185 190 189 186 205 195 174 149 122 105 73 61 78 86 92 97 107 112 108 114 119 119 120 120 120 125 133 133 124 119 111 114 107 73 44 40
145 149 158 156 157 149 142 143 153 167 166 155 153 146 130 119 83 84 99 111 104 92 97 97 101 110 118 115 111 115 116 116 121 124 114 114 95 103 74 54 51 43 37
130 140 145 145 147 132 115 116 139 146 142 131 101 78 79 72 79 89 110 124 120 114 108 88 97 99 105 96 103 100 100 98 99 96 80 111 79 93 61 55 44 38 50
119 124 154 153 152 134 122 113 123 129 110 77 57 62 61 66 76 81 83 91 94 99 83 83 93 88 84 77 71 76 78 70 65 75 69 113 104 107 88 73 81 98 87
135 139 139 147 155 136 109 103 93 86 67 60 62 57 62 65 78 83 76 79 77 77 83 88 82 85 71 58 60 70 69 77 94 109 100 116 124 124 131 118 101 119 132
136 139 160 147 127 114 90 68 51 50 58 59 57 58 65 65 71 73 72 64 68 61 60 60 63 71 85 97 106 83 90 94 106 121 136 133 131 132 147 121 107 108 106
Wind_Speed
14 14 15 16 17 18 18 21 24 25 27 28 27 26 26 28 28 28 29 27 23 24 25 28 30 31 32 33 35 35 35 35 35 34 35 35 36 37 37 37 37 38 38
16 15 15 14 15 16 19 21 23 27 28 28 29 26 25 27 29 29 30 32 24 21 23 23 26 27 28 28 30 31 32 32 33 34 35 37 37 38 38 38 38 38 38
16 17 15 13 14 18 19 21 24 26 27 28 28 27 26 28 31 32 32 31 29 22 19 20 22 23 25 26 27 28 30 30 31 32 33 35 37 39 40 40 40 39 39
16 17 17 15 17 19 20 21 23 25 26 27 29 30 31 33 34 33 34 32 30 29 25 19 20 24 24 24 26 27 24 25 28 30 32 34 36 40 41 42 45 43 43
18 18 19 19 18 20 19 21 24 26 28 29 30 32 34 34 35 35 34 31 31 30 28 26 22 22 23 22 23 25 23 20 22 25 29 32 35 38 42 45 43 44 46
22 21 24 23 22 23 22 22 25 27 30 34 36 37 37 37 37 35 35 33 33 32 31 29 28 25 23 24 20 20 20 16 17 22 24 27 34 39 42 43 47 47 44
30 27 28 27 24 22 21 23 30 31 35 35 41 42 43 39 37 33 35 38 36 32 31 31 31 30 24 17 19 19 21 23 17 17 19 24 34 35 38 42 42 45 52
36 33 29 29 27 27 27 28 28 36 39 34 40 46 55 52 44 38 36 40 41 41 39 36 33 29 28 28 27 24 22 23 27 17 22 27 29 33 36 38 44 43 49
40 38 37 36 34 30 32 32 32 33 41 39 33 42 53 55 56 43 47 44 43 44 41 38 38 32 30 31 31 29 26 24 25 22 22 27 31 33 40 46 45 46 47
46 43 43 41 40 38 38 37 36 36 38 43 43 39 45 51 55 60 46 43 44 43 43 41 40 39 38 38 37 34 30 25 26 27 24 19 26 29 38 50 54 48 51
46 44 42 42 40 40 40 40 41 39 40 42 43 49 48 47 41 46 54 47 48 41 41 44 46 45 42 41 38 34 29 27 25 22 22 20 22 26 34 47 48 48 57
51 48 46 44 43 42 42 43 42 40 38 38 41 40 41 43 41 39 45 47 48 47 45 46 49 46 45 41 39 37 33 29 25 22 21 20 16 25 26 29 37 56 59
54 54 53 51 49 48 46 43 41 39 36 38 36 40 36 36 38 42 46 48 47 45 44 46 47 46 43 43 42 38 35 30 26 25 23 17 21 25 36 40 37 36 46
58 57 56 55 54 51 49 44 41 37 37 35 36 36 37 40 42 44 44 43 51 45 45 43 45 44 44 45 41 37 36 33 27 26 26 26 26 35 41 41 40 36 36
51 51 51 51 52 50 44 38 35 34 30 31 32 36 38 43 45 44 43 40 43 48 48 43 42 43 43 43 41 38 38 35 32 30 32 31 33 35 38 39 38 43 47
43 42 41 40 38 37 34 29 27 28 27 32 32 38 44 44 43 44 43 41 39 39 42 40 40 41 41 40 40 38 37 35 37 38 37 36 36 38 35 36 39 39 41
44 43 41 38 37 35 32 30 30 30 32 34 38 41 42 40 41 41 40 38 38 37 36 37 37 39 38 37 38 39 38 38 38 41 40 38 37 36 36 36 37 38 42
45 45 42 40 41 39 37 34 33 33 35 37 37 37 36 35 37 39 38 38 37 35 33 33 33 35 37 37 38 38 39 38 37 39 38 36 35 35 37 38 38 39 41
42 42 40 41 41 39 35 34 31 31 32 32 32 32 31 32 34 35 35 34 34 34 32 30 32 33 36 36 37 37 38 37 37 38 38 38 38 37 38 40 42 42 44
39 38 37 35 35 35 32 29 28 27 29 30 30 29 28 28 29 29 29 31 33 33 33 33 34 35 35 35 36 38 37 39 39 39 40 40 40 38 40 43 43 42 39
37 34 33 33 32 31 30 27 25 23 23 23 24 25 26 25 26 27 29 32 32 33 34 35 35 35 35 35 36 39 40 41 41 42 43 42 41 39 39 38 34 32 34
36 35 33 33 32 29 23 21 19 20 19 18 19 22 23 25 27 28 32 34 34 34 34 34 35 35 35 35 36 39 41 44 44 40 45 43 38 37 35 33 34 35 37
34 32 29 27 25 23 20 17 16 16 15 16 17 18 22 25 27 30 32 34 38 37 37 35 35 35 35 33 36 38 40 41 42 43 45 42 36 35 36 37 42 43 41
30 27 24 21 20 20 17 15 14 14 15 16 18 20 23 26 29 30 30 33 35 38 37 36 36 34 35 34 35 37 39 40 40 40 39 41 38 39 44 44 43 42 35
24 22 18 18 17 17 14 13 12 13 14 17 20 22 25 28 30 31 31 31 32 34 36 35 36 36 37 36 32 36 39 43 44 42 41 41 42 47 46 43 41 40 39
19 19 18 17 15 13 12 11 12 13 15 18 21 24 25 28 31 31 32 31 30 31 33 34 35 36 37 39 40 38 38 42 44 46 40 49 46 49 48 42 40 39 46
Wind_Direction
358 3 8 10 15 19 20 17 13 11 11 12 15 14 14 12 11 12 12 12 14 14 16 16 15 16 16 14 11 9 8 6 4 3 1 359 356 355 355 356 355 351 347
340 345 347 357 5 6 2 2 3 1 2 2 3 9 10 8 6 5 2 1 5 6 6 8 9 10 11 10 9 9 6 4 1 359 357 354 352 350 349 347 348 348 343
327 334 335 345 353 352 354 356 355 356 358 359 3 4 3 359 357 357 356 357 358 357 358 359 360 1 1 2 2 2 2 1 360 358 354 351 347 344 339 339 340 339 339
320 328 333 335 339 343 348 350 351 352 353 355 356 357 354 351 352 352 351 352 353 353 352 348 349 351 352 352 353 353 355 357 355 350 347 346 344 340 339 333 325 327 324
310 317 322 328 331 332 337 341 341 342 343 345 346 347 346 346 347 347 346 346 346 346 346 344 339 340 343 343 344 345 344 344 344 346 344 343 341 338 333 330 330 323 317
304 308 312 314 318 321 323 328 330 333 333 335 336 336 336 338 341 341 341 341 340 338 337 337 339 336 332 334 333 337 340 335 335 337 339 341 339 337 329 328 321 320 322
297 300 304 306 309 309 313 316 321 323 325 329 330 331 331 333 334 335 337 337 336 336 337 336 335 334 334 322 326 325 329 332 324 328 334 337 338 337 337 327 317 318 314
293 295 298 302 304 305 306 309 312 318 321 325 327 329 325 328 331 333 334 334 333 333 334 334 335 335 334 332 326 319 314 322 330 318 326 326 328 330 332 332 324 320 314
290 291 293 296 300 300 301 303 305 308 313 320 319 323 324 323 327 332 332 332 332 334 338 339 337 337 336 334 329 323 315 313 316 313 311 313 318 320 317 318 311 314 315
289 290 292 293 295 297 299 301 305 305 308 311 317 311 314 319 322 324 333 331 332 334 336 339 341 341 338 335 332 327 324 320 316 316 312 311 320 321 321 316 309 309 305
292 293 293 293 293 295 297 299 302 303 306 309 311 315 317 318 320 321 324 329 332 339 338 337 339 340 342 340 338 336 331 326 321 315 318 320 324 328 328 322 317 311 307
294 294 295 295 295 296 297 299 301 304 307 309 313 315 317 321 326 324 323 324 326 331 335 337 337 339 342 344 341 338 336 334 330 329 322 321 345 340 335 340 335 317 308
293 295 295 295 295 296 297 298 301 304 308 310 313 315 319 322 324 322 323 325 325 332 335 339 340 341 344 345 343 341 339 337 340 342 346 0 349 11 357 349 353 2 327
293 296 296 297 296 296 296 298 301 304 308 312 315 318 323 326 324 322 323 325 325 329 332 336 341 345 347 346 346 347 345 346 350 352 358 5 1 346 339 336 339 338 336
297 299 300 300 301 300 300 300 301 303 310 316 321 324 324 324 324 324 325 328 328 327 331 338 341 348 351 352 353 353 353 353 355 353 351 354 352 348 342 341 338 331 326
305 306 308 311 314 316 314 310 310 312 313 317 323 322 323 323 325 325 326 331 334 334 332 341 345 348 352 354 355 356 354 354 351 346 346 345 345 344 343 341 339 338 334
303 305 308 311 314 313 314 313 312 312 313 317 318 321 322 324 325 326 330 336 339 340 339 344 350 353 355 356 355 352 352 351 347 344 343 341 341 341 341 342 342 339 333
302 303 305 307 307 307 308 309 309 312 312 314 319 321 323 327 329 330 336 340 343 346 347 349 357 359 359 359 357 353 354 355 354 352 351 351 350 347 344 343 340 337 332
304 305 307 303 304 308 311 312 315 316 319 322 324 325 328 331 333 337 343 349 353 357 0 3 0 0 360 0 358 357 356 357 357 355 354 351 348 346 342 338 333 330 326
306 309 310 311 310 310 315 317 319 323 325 327 329 332 336 339 342 349 356 1 1 3 5 4 0 359 0 0 359 355 354 355 354 353 350 347 344 342 338 335 333 330 328
309 310 311 314 316 316 317 320 326 331 334 337 342 345 347 353 359 1 2 359 1 2 0 358 358 359 359 358 356 353 351 351 352 351 348 347 346 345 341 338 340 338 334
307 307 310 311 314 319 327 332 333 334 343 351 350 351 357 4 3 6 3 5 3 1 358 358 358 358 359 359 358 354 351 349 348 357 351 350 355 354 351 347 342 337 332
306 308 314 318 320 326 331 337 345 355 355 359 358 5 3 358 359 0 5 5 2 2 1 1 1 1 1 3 1 358 356 355 354 356 355 354 3 357 351 343 333 328 326
307 309 315 322 326 331 341 353 2 6 7 1 2 2 360 359 358 1 3 1 0 359 1 6 7 9 8 9 5 3 1 360 360 3 6 356 359 351 344 341 338 336 334
308 307 317 321 325 331 347 4 8 8 4 0 355 358 359 358 0 1 1 1 2 2 5 10 10 11 9 9 10 6 2 358 357 359 3 357 354 346 344 342 341 340 337
305 303 309 316 325 333 349 352 350 352 349 348 352 356 1 358 358 1 1 3 3 5 6 6 6 7 9 9 7 5 2 357 355 354 2 353 350 348 343 344 342 338 333